This is the latest recevied weather packets stored in our database for station/object IW2NTF-3. If no packets are shown the sender has not sent any weather packets the latest 1 day(s).
| Time | Temp. | Humidity | Pressure | Rain* | Wind** | Luminosity | Snow |
|---|---|---|---|---|---|---|---|
| 1777979883 | 15° C | 84% | 1012.9 hPa | 0 mm | 1.79 m/s, 7° | 260 W/m² | - |
| 1777979823 | 15° C | 84% | 1012.9 hPa | 0 mm | 1.79 m/s, 5° | 278 W/m² | - |
| 1777979763 | 14.44° C | 84% | 1012.9 hPa | 0 mm | 1.79 m/s, 1° | 316 W/m² | - |
| 1777979703 | 14.44° C | 84% | 1013 hPa | 0 mm | 1.79 m/s, 358° | 422 W/m² | - |
| 1777979643 | 14.44° C | 84% | 1013 hPa | 0 mm | 2.24 m/s, 357° | 443 W/m² | - |
| 1777979583 | 14.44° C | 84% | 1013 hPa | 0 mm | 2.24 m/s, 355° | 450 W/m² | - |
| 1777979523 | 14.44° C | 84% | 1013 hPa | 0 mm | 2.24 m/s, 354° | 445 W/m² | - |
| 1777979463 | 14.44° C | 84% | 1013 hPa | 0 mm | 2.24 m/s, 354° | 269 W/m² | - |
| 1777979403 | 14.44° C | 84% | 1013.1 hPa | 0 mm | 2.24 m/s, 353° | 269 W/m² | - |
| 1777979343 | 14.44° C | 84% | 1013.1 hPa | 0 mm | 2.24 m/s, 352° | 223 W/m² | - |
| 1777979283 | 14.44° C | 84% | 1013.2 hPa | 0 mm | 2.24 m/s, 350° | 214 W/m² | - |
| 1777979223 | 14.44° C | 84% | 1013.2 hPa | 0 mm | 2.24 m/s, 350° | 216 W/m² | - |
| 1777979163 | 14.44° C | 84% | 1013.2 hPa | 0 mm | 1.79 m/s, 349° | 316 W/m² | - |
| 1777979103 | 14.44° C | 84% | 1013.1 hPa | 0 mm | 1.79 m/s, 350° | 332 W/m² | - |
| 1777979043 | 14.44° C | 84% | 1013.1 hPa | 0 mm | 1.79 m/s, 347° | 332 W/m² | - |
| 1777978983 | 14.44° C | 84% | 1013.1 hPa | 0 mm | 1.34 m/s, 344° | 309 W/m² | - |
| 1777978923 | 13.89° C | 84% | 1013.2 hPa | 0 mm | 1.34 m/s, 342° | 278 W/m² | - |
| 1777978863 | 13.89° C | 84% | 1013.2 hPa | 0 mm | 1.34 m/s, 342° | 246 W/m² | - |
| 1777978803 | 13.89° C | 84% | 1013.2 hPa | 0 mm | 1.34 m/s, 342° | 220 W/m² | - |
| 1777978743 | 13.89° C | 84% | 1013.3 hPa | 0 mm | 1.34 m/s, 341° | 206 W/m² | - |
| 1777978683 | 14.44° C | 85% | 1013.3 hPa | 0 mm | 1.34 m/s, 341° | 193 W/m² | - |
| 1777978623 | 13.89° C | 85% | 1013.3 hPa | 0 mm | 1.34 m/s, 342° | 185 W/m² | - |
| 1777978563 | 13.89° C | 85% | 1013.3 hPa | 0 mm | 1.79 m/s, 343° | 190 W/m² | - |
| 1777978503 | 13.89° C | 85% | 1013.3 hPa | 0 mm | 1.79 m/s, 344° | 206 W/m² | - |
| 1777978443 | 13.89° C | 85% | 1013.3 hPa | 0 mm | 2.24 m/s, 346° | 218 W/m² | - |
* Rain latest hour (hover to see other rain measurements)
** Current wind speed in m/s (hover to see current wind gust speed)